{"data":{"norad_id":69826,"intl_designator":"2026-154H","name":"STARLINK-37710","alt_names":[],"object_type":"PAYLOAD","status":"ACTIVE","operator":null,"country":"US","launch_date":"2026-07-05","launch_site_code":"AFETR","launch_vehicle":null,"mission":null,"orbit_class":"UNKNOWN","rcs_meters":null,"size_class":null,"mass_kg":null,"dimensions":null,"purposes":["comms"],"wikipedia_slug":null,"has_3d_model":false,"image_url":null,"decayed_at":null,"tle_current":{"epoch":"2026-09-19T18:36:25.492320Z","epoch_age_seconds":80418,"freshness":"FRESH","line1":"1 69826U 26154H   26262.77529505  .00007117  00000+0  22169-3 0  9995","line2":"2 69826  53.1587 335.3450 0001305  93.4392 266.6760 15.34384278 13129","mean_motion":15.34384278,"eccentricity":0.0001305,"inclination_deg":53.1587,"raan_deg":335.345,"arg_perigee_deg":93.4392,"mean_anomaly_deg":266.676,"bstar":0.00022169,"rev_number":1312,"period_min":93.848719688198,"perigee_km":461.85723395383,"apogee_km":463.64270545292,"semimajor_km":6840.8869697034,"source":"CELESTRAK","updated_at":"2026-09-20T09:00:44.292664Z"}}}